Location: Boulin
(43.2500°N, 0.1333°E)
Time: 00:39:06
(UTC+00:00)

Cosmos 1933 - Pass Details

Date: 20 March 2026
Orbit: 507 x 515 km, 82.5° (Epoch: 14 April)

Event Time Altitude Azimuth Distance (km) Brightness Sun altitude
Exits shadow 05:03:38 - 209° (SSW) 2,052 5.9 -11.6°
Reaches altitude 10° 05:04:27 10° 213° (SSW) 1,736 5.5 -11.4°
Maximum altitude 05:08:01 38° 283° (WNW) 798 3.7 -10.8°
Drops below altitude 10° 05:11:37 10° 353° (N) 1,746 5.9 -10.2°
Sets 05:13:52 0° 1° (N) 2,636 6.9 -9.7°
